Wind_Speed
10 10 11 10 10 10 11 12 12 12 12 13 13 13 13 14 14 14 14 13 14 14 14 14 14 14 15 15 15 16 16 16 16 16 15 15 14 15 14 14 14 15 15
10 11 11 11 11 11 11 12 12 12 12 12 12 13 14 14 14 14 14 14 14 14 14 15 15 15 15 15 15 15 15 15 15 15 15 15 15 15 15 15 15 15 15
10 11 11 11 11 11 11 11 12 12 12 12 13 14 14 13 14 13 13 14 14 14 14 15 15 15 15 14 15 14 14 14 15 15 15 15 15 15 15 15 15 16 16
10 11 11 11 11 12 11 11 12 12 13 13 13 14 13 13 13 13 14 14 14 14 14 15 15 15 15 15 15 15 15 15 15 15 15 15 15 15 15 15 15 16 16
10 11 11 12 12 12 12 12 13 13 13 14 14 14 14 14 14 15 15 15 15 15 15 15 15 15 16 16 15 15 15 16 15 15 15 15 15 16 15 16 16 17 17
11 11 11 12 11 12 13 13 14 14 14 14 14 14 15 15 15 15 15 16 16 15 15 15 15 16 16 16 16 16 16 16 15 15 16 16 16 16 16 16 17 17 18
11 11 12 12 12 13 13 14 14 14 14 14 14 15 16 16 16 16 16 17 17 17 16 16 16 16 17 17 17 17 16 17 16 16 16 17 17 17 16 17 16 17 17
11 11 12 12 13 13 14 14 14 14 15 14 14 15 16 16 16 17 17 17 17 17 17 17 17 17 18 18 18 17 17 17 17 18 17 17 17 17 17 18 19 19 18
12 12 13 13 13 14 14 14 15 14 15 15 15 15 16 16 17 17 17 17 17 17 18 18 18 18 18 18 18 18 18 18 18 18 17 17 18 17 17 18 18 19 19
13 13 14 14 14 14 14 15 15 15 15 15 16 16 16 16 16 16 17 17 17 17 17 18 17 18 18 18 18 19 18 18 18 17 18 18 18 18 18 18 19 19 19
13 13 14 14 15 15 15 15 15 15 15 16 16 16 16 16 17 17 17 17 17 17 17 18 18 18 18 18 18 19 19 19 18 18 18 18 18 18 19 19 19 20 20
14 14 15 15 15 15 15 16 16 16 16 16 16 16 16 16 17 17 17 17 17 18 18 18 18 19 19 19 18 19 19 19 19 18 18 18 18 19 19 19 19 20 20
15 15 15 15 15 15 16 16 17 16 16 16 16 16 17 17 17 17 17 17 17 17 18 17 17 18 18 17 17 18 18 19 19 18 18 18 18 19 19 19 19 19 20
15 16 16 16 16 16 16 17 17 17 17 17 17 17 17 17 17 17 17 17 17 16 16 16 16 16 17 17 17 18 18 19 19 19 18 18 18 18 19 19 19 19 19
16 17 17 17 17 17 17 17 18 18 18 18 18 17 17 17 17 17 17 17 17 17 17 17 17 17 17 18 18 18 18 18 18 18 18 18 18 18 18 19 19 19 20
17 18 18 18 18 18 18 18 18 18 19 18 18 17 17 17 17 17 17 17 16 17 17 17 17 17 18 18 18 19 19 19 19 19 19 19 19 19 19 19 19 20 20
19 19 18 19 19 19 20 20 19 19 19 19 18 18 17 17 17 17 17 17 17 17 17 17 17 18 18 18 18 19 20 20 20 20 20 19 19 20 19 19 19 19 20
19 19 19 19 20 20 20 21 20 20 19 19 19 18 18 18 18 18 18 18 18 17 17 17 17 17 18 18 18 19 19 19 19 20 20 20 20 19 19 19 19 20 20
19 20 20 20 20 20 20 20 20 20 20 20 20 19 19 19 19 19 19 18 19 19 18 18 18 18 18 18 18 19 19 19 20 21 21 20 20 20 20 20 20 20 21
20 20 20 21 21 21 20 20 20 21 21 21 20 19 20 20 20 20 20 19 19 19 19 19 19 19 19 19 19 19 20 20 20 20 21 21 21 21 21 21 21 21 21
20 21 21 21 21 21 21 21 21 21 21 21 21 20 20 20 20 20 20 20 20 20 20 20 20 20 20 20 20 20 20 20 21 21 21 22 22 21 21 21 21 21 22
21 21 21 21 22 22 22 21 21 21 21 21 21 21 21 21 20 20 20 20 20 20 21 21 21 21 21 21 21 21 21 21 21 21 22 22 22 22 22 22 22 22 23
21 22 22 22 22 22 22 22 22 22 22 22 22 22 21 21 21 21 21 21 21 21 21 21 21 22 22 21 21 21 22 22 22 22 22 22 23 23 23 23 24 24 24
23 23 23 23 23 23 23 23 23 23 23 22 23 22 22 22 23 23 23 23 23 22 22 22 21 22 22 22 22 22 22 22 22 21 21 22 22 22 23 23 23 24 24
23 24 24 24 24 23 24 23 24 23 23 23 22 22 22 23 23 24 24 24 23 23 23 22 22 22 22 22 23 22 22 23 22 23 23 23 23 23 23 23 23 24 24
24 24 25 25 25 25 25 25 25 24 24 24 24 24 23 23 24 24 25 25 24 24 24 24 23 23 23 22 22 22 23 24 23 23 23 23 23 24 24 24 24 24 24
Wind_Direction
278 279 277 278 278 280 283 284 285 285 280 276 273 271 269 267 267 264 263 264 263 262 261 259 257 259 259 258 257 257 258 257 257 260 261 258 257 256 256 256 255 256 258
279 281 280 279 278 279 281 283 285 286 284 281 277 272 270 269 267 265 265 264 263 263 261 258 256 257 257 256 256 257 258 257 258 258 257 256 257 257 256 255 255 256 258
279 280 281 279 279 279 283 282 285 285 285 283 278 273 269 269 265 265 265 265 264 263 262 261 258 256 256 255 255 256 256 257 257 257 258 259 259 258 259 259 257 257 259
279 280 278 275 278 280 283 286 284 284 284 284 279 273 269 270 269 268 267 267 265 263 262 261 258 255 255 255 256 256 255 256 256 258 259 260 260 261 261 261 261 261 263
280 279 280 276 276 281 285 288 286 285 285 283 280 274 271 271 272 271 269 268 267 264 262 263 259 257 256 257 256 257 256 257 255 255 257 258 260 261 263 261 262 263 264
278 278 277 275 276 281 286 287 287 288 289 283 278 275 272 270 271 271 271 270 268 264 263 263 261 259 257 255 254 256 257 259 258 257 257 259 261 262 263 263 262 264 265
277 277 278 277 278 282 285 287 288 289 287 287 280 277 272 271 273 273 273 270 267 265 263 263 262 259 258 257 257 257 257 259 259 260 261 261 262 262 264 265 263 267 266
276 279 281 281 283 284 286 286 286 287 287 285 283 281 277 275 274 274 272 269 266 264 263 263 261 259 258 259 260 259 257 258 261 263 263 260 261 264 264 266 268 271 270
276 278 280 282 287 288 287 287 286 287 288 288 287 285 282 278 276 276 273 270 267 264 263 261 261 262 262 260 260 260 259 261 262 261 261 262 263 264 266 268 270 272 271
276 276 279 283 285 287 288 288 288 288 288 288 290 290 288 284 281 276 274 273 270 266 263 261 260 260 260 259 258 258 257 259 260 261 262 263 265 267 268 269 271 272 271
276 277 281 284 284 286 287 288 289 289 289 289 289 289 288 284 282 280 277 276 273 269 266 264 261 260 259 258 258 257 257 257 258 261 264 265 267 269 269 270 271 272 272
276 278 282 283 283 285 287 288 288 288 289 290 289 287 284 282 282 280 277 276 274 271 269 266 262 261 261 260 260 259 260 257 258 261 264 267 269 268 269 270 270 271 271
276 277 280 280 280 282 285 288 287 286 288 289 288 287 284 282 281 279 277 276 274 273 273 268 264 261 261 260 262 261 262 259 260 262 263 267 270 269 268 271 272 273 273
277 275 277 277 277 279 284 288 288 287 288 289 289 287 285 282 281 279 277 275 273 273 273 270 266 262 259 258 261 264 264 261 262 265 265 266 270 268 268 271 273 274 276
275 277 276 275 275 278 282 285 286 288 288 289 290 289 287 285 281 278 277 275 273 272 272 271 270 264 260 259 259 261 265 265 265 265 266 268 271 269 270 273 274 275 275
276 277 279 277 277 278 281 283 285 287 289 289 290 289 288 285 283 280 277 276 275 273 271 271 269 265 260 260 261 262 263 265 266 265 266 268 270 271 272 274 276 275 275
277 279 280 280 279 279 279 281 284 286 286 286 286 287 287 285 282 280 278 277 275 273 270 269 266 262 259 260 262 263 263 264 267 267 266 267 270 270 272 274 275 277 278
279 280 280 282 282 282 282 282 283 284 285 284 282 282 283 283 282 280 278 276 275 273 271 268 264 262 260 261 264 265 265 265 266 269 269 269 270 270 270 273 277 279 278
280 281 281 281 281 282 283 282 282 282 282 283 281 280 281 281 280 279 278 277 275 273 271 268 265 262 261 263 265 267 267 266 267 269 269 269 269 270 272 274 277 279 278
280 281 281 280 281 282 282 282 283 283 281 281 280 279 279 280 279 278 277 276 275 273 271 269 266 264 263 263 265 266 266 267 268 271 270 269 269 271 274 274 277 279 280
280 281 281 280 281 281 281 281 282 282 282 280 278 278 278 279 278 277 275 275 274 273 272 271 268 265 263 264 266 268 267 266 268 271 270 269 270 270 273 275 277 279 281
279 280 281 279 279 280 280 281 281 283 284 281 279 278 277 276 276 275 274 274 274 273 272 271 269 265 264 264 265 267 268 267 270 270 271 270 271 270 271 274 276 279 282
279 280 279 279 278 279 278 279 282 283 283 282 280 279 277 275 274 275 273 273 273 272 271 271 269 266 265 263 264 267 269 268 270 272 271 272 271 270 271 273 276 279 282
278 280 279 278 277 276 277 279 281 283 283 281 280 278 278 276 274 273 271 271 272 271 270 270 269 268 266 263 265 268 270 270 272 273 273 273 271 270 271 273 275 278 280
278 279 278 277 277 277 276 277 279 283 284 284 283 280 279 277 274 272 271 271 270 270 270 268 268 267 266 267 268 269 270 271 273 274 274 274 271 270 271 273 275 277 279
277 278 277 275 276 277 277 277 279 280 282 282 282 281 280 278 275 273 272 272 270 269 270 269 267 266 266 268 269 270 271 272 274 274 273 273 271 270 270 272 275 277 279
Height
5841 5840 5840 5840 5840 5840 5839 5839 5839 5838 5838 5838 5838 5838 5838 5838 5838 5839 5839 5839 5840 5840 5840 5841 5841 5842 5842 5843 5844 5844 5845 5845 5847 5847 5848 5848 5849 5850 5851 5851 5852 5853 5853
5838 5838 5838 5838 5837 5837 5837 5836 5836 5835 5835 5835 5834 5834 5834 5834 5835 5835 5835 5836 5836 5836 5837 5837 5838 5838 5839 5839 5840 5841 5842 5842 5843 5844 5845 5845 5846 5847 5847 5848 5849 5849 5850
5836 5835 5835 5835 5835 5834 5834 5833 5833 5832 5832 5831 5831 5831 5831 5831 5831 5831 5832 5832 5832 5833 5833 5833 5834 5835 5835 5836 5837 5837 5838 5839 5840 5841 5841 5842 5843 5843 5844 5844 5845 5845 5846
5833 5833 5832 5832 5832 5831 5831 5830 5830 5829 5829 5828 5828 5827 5827 5827 5828 5828 5828 5828 5828 5829 5829 5830 5830 5831 5832 5832 5833 5834 5835 5835 5836 5837 5838 5838 5839 5840 5840 5841 5841 5842 5842
5830 5830 5830 5829 5829 5828 5828 5827 5827 5826 5825 5825 5824 5824 5824 5824 5824 5824 5824 5824 5825 5825 5826 5826 5826 5827 5828 5828 5829 5830 5831 5831 5832 5833 5834 5835 5836 5836 5836 5837 5837 5838 5838
5827 5827 5827 5826 5826 5825 5825 5824 5823 5823 5822 5821 5820 5820 5820 5820 5820 5820 5820 5820 5821 5821 5822 5822 5823 5823 5824 5825 5825 5826 5827 5827 5828 5829 5830 5831 5832 5832 5833 5833 5833 5834 5834
5824 5824 5824 5823 5823 5822 5822 5821 5820 5819 5818 5818 5817 5817 5816 5816 5816 5816 5816 5816 5816 5817 5817 5818 5818 5819 5819 5820 5821 5822 5823 5823 5824 5825 5826 5827 5827 5828 5828 5829 5829 5829 5829
5821 5821 5821 5820 5820 5819 5818 5817 5817 5816 5815 5814 5814 5813 5812 5813 5811 5812 5812 5812 5812 5812 5813 5813 5814 5814 5815 5816 5817 5818 5818 5819 5820 5821 5821 5822 5822 5823 5824 5824 5824 5825 5825
5818 5818 5818 5817 5816 5816 5815 5814 5813 5812 5811 5811 5810 5809 5808 5808 5807 5807 5807 5807 5807 5807 5808 5809 5809 5809 5810 5811 5812 5813 5814 5815 5815 5816 5817 5817 5818 5818 5819 5819 5819 5820 5820
5815 5815 5814 5814 5813 5812 5811 5810 5809 5809 5808 5807 5806 5804 5804 5803 5803 5803 5803 5802 5802 5802 5803 5804 5804 5805 5805 5806 5807 5808 5809 5810 5811 5812 5812 5813 5813 5813 5814 5814 5815 5815 5815
5812 5811 5811 5810 5809 5808 5808 5807 5806 5805 5804 5803 5802 5800 5799 5799 5798 5798 5798 5798 5798 5798 5798 5798 5799 5800 5801 5802 5802 5803 5804 5805 5806 5807 5807 5808 5808 5808 5809 5809 5809 5810 5810
5808 5808 5807 5806 5805 5805 5804 5803 5802 5801 5800 5798 5797 5796 5795 5794 5794 5793 5793 5793 5793 5793 5793 5793 5794 5795 5795 5796 5798 5799 5800 5800 5801 5802 5802 5802 5803 5803 5804 5804 5804 5805 5805
5805 5804 5803 5802 5802 5801 5800 5799 5798 5797 5795 5794 5793 5792 5791 5790 5789 5789 5789 5788 5788 5787 5787 5788 5788 5789 5790 5791 5792 5793 5794 5795 5796 5796 5797 5797 5798 5798 5798 5799 5799 5799 5799
5800 5800 5799 5798 5797 5797 5796 5795 5794 5792 5791 5790 5789 5787 5786 5785 5784 5784 5784 5783 5782 5782 5782 5783 5783 5784 5785 5786 5788 5789 5789 5790 5791 5792 5792 5792 5792 5793 5793 5793 5794 5793 5793
5796 5795 5794 5793 5793 5792 5791 5790 5789 5788 5787 5785 5784 5783 5781 5780 5779 5779 5778 5777 5777 5777 5778 5778 5778 5779 5779 5781 5782 5783 5784 5785 5786 5787 5787 5787 5788 5788 5788 5788 5788 5788 5788
5791 5790 5789 5789 5788 5787 5786 5785 5784 5783 5782 5780 5779 5778 5777 5776 5774 5774 5773 5772 5772 5772 5772 5773 5773 5773 5775 5776 5777 5778 5779 5780 5781 5781 5782 5782 5782 5783 5783 5783 5783 5783 5782
5785 5785 5784 5784 5783 5782 5781 5780 5779 5778 5776 5775 5774 5773 5772 5771 5770 5769 5768 5768 5767 5767 5767 5768 5768 5769 5770 5771 5772 5773 5774 5775 5776 5776 5777 5777 5777 5777 5778 5778 5777 5777 5776
5780 5779 5779 5778 5777 5776 5775 5774 5773 5772 5771 5770 5769 5768 5767 5766 5765 5764 5764 5763 5763 5763 5763 5763 5763 5764 5765 5766 5767 5768 5769 5770 5770 5771 5771 5772 5772 5772 5772 5772 5772 5771 5771
5774 5773 5773 5772 5771 5770 5770 5768 5767 5767 5766 5765 5764 5763 5762 5761 5760 5759 5759 5758 5758 5758 5758 5758 5758 5759 5760 5761 5762 5763 5764 5764 5765 5765 5766 5766 5766 5766 5767 5766 5766 5766 5765
5768 5768 5767 5766 5765 5764 5763 5762 5762 5761 5760 5759 5758 5757 5756 5755 5754 5754 5753 5753 5753 5752 5752 5753 5753 5754 5755 5756 5757 5758 5758 5759 5759 5759 5760 5760 5760 5761 5761 5760 5760 5760 5759
5762 5761 5761 5760 5759 5758 5757 5756 5755 5755 5754 5753 5752 5751 5750 5749 5748 5748 5747 5747 5747 5747 5747 5747 5747 5749 5749 5751 5752 5752 5753 5753 5753 5753 5754 5754 5754 5755 5754 5754 5754 5754 5753
5756 5755 5754 5753 5753 5752 5751 5750 5749 5748 5747 5746 5745 5745 5744 5743 5742 5742 5741 5741 5741 5741 5741 5741 5742 5742 5743 5744 5745 5746 5746 5747 5748 5748 5748 5748 5748 5748 5748 5748 5748 5747 5746
5749 5749 5748 5747 5746 5746 5745 5744 5743 5742 5741 5740 5739 5738 5738 5737 5736 5736 5735 5735 5735 5735 5735 5735 5736 5736 5737 5738 5739 5740 5740 5740 5741 5741 5741 5741 5741 5742 5742 5741 5741 5741 5740
5743 5742 5741 5740 5740 5739 5738 5737 5737 5736 5734 5733 5732 5732 5731 5730 5730 5730 5729 5729 5729 5729 5729 5729 5729 5730 5730 5731 5732 5733 5733 5734 5734 5734 5734 5735 5734 5735 5735 5734 5734 5733 5732
5736 5735 5734 5733 5733 5732 5731 5731 5730 5729 5728 5727 5726 5725 5724 5724 5723 5723 5723 5723 5723 5722 5722 5722 5722 5723 5723 5724 5725 5726 5726 5727 5727 5727 5727 5727 5727 5727 5727 5727 5727 5726 5725
5729 5728 5727 5727 5726 5725 5724 5724 5723 5722 5721 5720 5719 5719 5718 5717 5716 5716 5716 5716 5716 5716 5716 5716 5716 5716 5717 5717 5718 5719 5719 5720 5720 5720 5720 5719 5719 5719 5720 5720 5719 5719 5718